Other Surface Observations
Issued by NWS Tucson, AZ

Home | Current Version | Previous Version | Text Only | Print | Product List | Glossary On
Versions: 1 2 3 4 5 6 7 8 9 10 11 12 13 14 15 16 17 18 19 20 21 22 23 24 25 26 27 28 29 30 31 32 33 34 35 36 37 38 39 40 41 42 43 44 45 46 47 48 49 50
910
SXUS55 KTWC 270615
OSOTWC

WEATHER ROUNDUP FOR SOUTHEAST ARIZONA
NATIONAL WEATHER SERVICE TUCSON AZ
1115 PM MST SUN FEB 26 2017

AZZ504>506-514-270715-
LOCATION       SKY/WX    TMP DP  RH WIND       PRES   REMARKS
TUCSON         CLEAR     54  31  41 CALM      29.98R
DAVIS-MONTHAN  CLEAR     47  30  52 S6        29.97R
CHILDRENS PARK N/A      N/A N/A  44 S2                PIMA CO DEQ
ALVERNON/22ND  N/A       56 N/A N/A SW3               PIMA CO DEQ
CHERRY/GLENN   N/A       53 N/A N/A S4                PIMA CO DEQ
TANGERINE      N/A       54 N/A N/A W4                PIMA CO DEQ
CONTL RANCH    N/A       58  33  38 SW5               PIMA CO DEQ
GRANT/1ST      N/A       55  31  40 S2                PIMA CO DEQ
CRAYCROFT/22ND N/A       54  31  42 N/A               PIMA CO DEQ
GOLFLINKS/KOLB N/A       55  31  40 SW2               PIMA CO DEQ
AJO/12TH       N/A       56  33  41 S6                PIMA CO DEQ
FAIRGROUNDS    N/A       46 N/A N/A SE5               PIMA CO DEQ
SAGUARO        N/A       55  32  42 W4G10             *SABINO CYN
SAN CARLOS     N/A       47  26  44 NW2               *SAN CARLOS
GREEN VALLEY   N/A       51  31  46 S5                PIMA CO DEQ
HORSE CAMP CYN N/A       43  25  48 E8                *ARAVAIPA CYN
RINCON MTNS    NOT AVBL
$$

AZZ509>511-270715-
LOCATION       SKY/WX    TMP DP  RH WIND       PRES   REMARKS
SAFFORD        CLEAR     41  26  55 NE6       29.94S
STRAY HORSE    N/A       31  20  64 N/A               *
TRAIL CABIN    NOT AVBL
BLACK HILLS    NOT AVBL
DRY LAKE       N/A       31  20  63 SW3G10            *NATANES MTNS
NOON CREEK     NOT AVBL
COLUMBINE      N/A       25  20  82 SW10G18           *PINALENO MTNS
GUTHRIE        N/A       39  21  47 W10G16            *SW OF GUTHRIE
$$

AZZ502-503-513-270715-
LOCATION       SKY/WX    TMP DP  RH WIND       PRES   REMARKS
NOGALES        PTCLDY    46  26  45 S6        30.00R
SELLS          N/A       52  34  51 SW4               *
SASABE         N/A       44  34  67 SW5               *ALTAR VLY
HOPKINS        N/A       33  25  71 W12G16            *SANTA RITA MTNS
CARR CYN       N/A       41  22  47 SW2               *W OF HEREFORD
$$

AZZ507-508-512-270715-
LOCATION       SKY/WX    TMP DP  RH WIND       PRES   REMARKS
SIERRA VISTA   PTCLDY    48  20  34 CALM      30.00R
DOUGLAS        MOCLDY    48  23  37 SW5       29.98R
EMPIRE MTNS    NOT AVBL
MULESHOE RANCH N/A       48  28  45 W5G20             *PRESERVE
HEADQUARTERS   NOT AVBL
$$

.............................NOTES.............................
THIS IS AN AUTOMATED COLLECTIVE WITH MINIMAL QUALITY CONTROL.
PIMA CO DEQ SITES HAVE NONSTANDARD WIND SENSOR HEIGHTS.
PIMA CO DEQ SITES DO NOT REPORT WIND GUSTS.
* INDICATES WIND SENSORS LOCATED AT 20 FEET INSTEAD OF 33 FEET.
..............................KEY..............................
SKY/WX - SKY CONDITION/WEATHER
TMP    - TEMPERATURE IN FAHRENHEIT
DP     - DEWPOINT IN FAHRENHEIT
RH     - RELATIVE HUMIDITY IN PERCENT
WIND   - DIRECTION AND SPEED IN MILES PER HOUR (MPH)
VRB    - VARIABLE WIND DIRECTION
PRES   - MEAN SEA LEVEL PRESSURE IN INCHES OF MERCURY
         F - FALLING PRESSURE   R - RISING PRESSURE
         S - STEADY PRESSURE
VSB    - VISIBILITY IN MILES
HX     - HEAT INDEX IN FAHRENHEIT
WCI    - WIND CHILL INDEX IN FAHRENHEIT
N/A    - NOT AVAILABLE
AFB    - AIR FORCE BASE
         DAVIS-MONTHAN IS DAVIS-MONTHAN AIR FORCE BASE
CYN    - CANYON
MTNS   - MOUNTAINS
NCA    - NATIONAL CONSERVATION AREA
NR     - NEAR
VLY    - VALLEY
CONTL  - CONTINENTAL
PIMA CO DEQ - PIMA COUNTY DEPT OF ENVIRONMENTAL QUALITY



USA.gov is the U.S. government's official web portal to all federal, state and local government web resources and services.